KUILKHQM

Guest
Details From KUIL - QUILLAYUTE
To KHQM - BOWERMAN
Flight Number -
Tags generated
Created
Modified
Stats Distance 63 nm / 118 km
Max Altitude 6,900 ft / 2,103 m
Waypoints 3
Social Downloads 0
Likes 0
Share VATSIM

Download

Looking for another format? Having issues loading an existing format? Contact us
Advertisement - Login to hide

Notes

Basic altitude profile: - Ascent Rate: 2500ft/min - Ascent Speed: 250kts - Cruise Altitude: 3000ft - Cruise Speed: 420kts - Descent Rate: 1500ft/min - Descent Speed: 250kts Options: - Use NATs: yes - Use PACOTS: yes - Use low airways: yes - Use high airways: yes

Route

KUIL WAPTO KHQM

ID Type Via Altitude Latitude Longitude Leg Dist Tot Dist Heading (true) Name
O KUIL APT - 0 ft / 0 m 47.93913˚ -124.56118˚ - 0 nm - QUILLAYUTE
WAPTO FIX - 6,900 ft / 2,103 m 47.47209˚ -124.23066˚ 31 nm 31 nm 154° / 155° -
O KHQM APT - 0 ft / 0 m 46.97120˚ -123.93656˚ 32 nm 63 nm 158° / 158° BOWERMAN

Altitude Profile

Advertisement - Login to hide

KUIL

Details ICAO KUIL
Name QUILLAYUTE
Region United States
Timezone America/Los_Angeles (UTC-7.0)
Stats Elevation 194 ft / 59 m (AMSL)
Location 47.939128° -124.561178°
Runways 2
Magnetic Variation 16.104° E

METAR

KUIL 201418Z AUTO VRB05KT 10SM BKN011 OVC036 11/09 A3004

Decode

TAF

Not found

Departure Runways

ID Width Length Bearing (true) Bearing (mag) Surface Threshold Offset Overrun Length
04 98 ft / 30 m 4,203 ft / 1,281 m 58.29° 42.19° Concrete 0 ft / 0 m 0 ft / 0 m
14 174 ft / 53 m 4,676 ft / 1,425 m 143.00° 126.90° Concrete 0 ft / 0 m 0 ft / 0 m
22 98 ft / 30 m 4,203 ft / 1,281 m 238.31° 222.21° Concrete 0 ft / 0 m 801 ft / 244 m
32 174 ft / 53 m 4,676 ft / 1,425 m 323.00° 306.90° Concrete 0 ft / 0 m 0 ft / 0 m

KHQM

Details ICAO KHQM
Name BOWERMAN
Region United States
Timezone America/Los_Angeles (UTC-7.0)
Stats Elevation 18 ft / 5 m (AMSL)
Location 46.971196° -123.936564°
Runways 1
Magnetic Variation 15.780° E

METAR

KHQM 201353Z AUTO 28006KT 6SM BR OVC025 12/11 A3004 RMK AO2 SLP175 T01170106

Decode

TAF

KHQM 201121Z 2012/2112 26008KT P6SM OVC030 FM202000 24011KT P6SM SCT022 BKN035 FM210000 25012KT P6SM BKN050 BKN100 FM210600 28006KT P6SM BKN025 OVC050

Decode

Destination Runways

ID Width Length Bearing (true) Bearing (mag) Surface Threshold Offset Overrun Length
06 151 ft / 46 m 4,987 ft / 1,520 m 79.79° 64.01° Asphalt 0 ft / 0 m 0 ft / 0 m
24 151 ft / 46 m 4,987 ft / 1,520 m 259.81° 244.03° Asphalt 0 ft / 0 m 0 ft / 0 m

Approach Navaids

Runway Type Ident Frequency Range Bearing (true) Bearing (mag) Slope Elevation
24 Localiser IHQM 108.70 MHz 18 nm / 33 km 259.79° 244.01° - 18 ft / 5 m (AMSL)
24 Glidescope IHQM 108.70 MHz 10 nm / 19 km 259.80° 244.02° 3.00° 18 ft / 5 m (AMSL)
24 DME IHQM 108.70 MHz 18 nm / 33 km - - - 18 ft / 5 m (AMSL)

Popular Alternatives